SB KEPS @ AMSAT $ORB09246.O Orbital Elements 09246.OSCAR
HR AMSAT ORBITAL ELEMENTS FOR OSCAR SATELLITES FROM WA5QGD FORT WORTH,TX September 3, 2009 Send Subscribe/unsubscribe to KEPS at http://www.amsat.org/mailman/listinfo/keps BID: ORB09246.O TO ALL RADIO AMATEURS BT
Satellite: AO-07 Catalog number: 07530 Epoch time: 09245.58078478 Element set: 0572 Inclination: 101.4237 deg RA of node: 267.4092 deg Eccentricity: 0.0011959 Arg of perigee: 115.8759 deg Mean anomaly: 244.3544 deg Mean motion: 12.53576367 rev/day Decay rate: -2.7e-07 rev/day^2 Epoch rev: 59241 Checksum: 325
Satellite: FO-29 Catalog number: 24278 Epoch time: 09245.72709795 Element set: 0129 Inclination: 098.5399 deg RA of node: 109.3026 deg Eccentricity: 0.0350927 Arg of perigee: 149.3152 deg Mean anomaly: 212.9032 deg Mean motion: 13.52944534 rev/day Decay rate: -1.7e-07 rev/day^2 Epoch rev: 64423 Checksum: 325
Satellite: SO-33 Catalog number: 25509 Epoch time: 09245.57011099 Element set: 0534 Inclination: 031.4364 deg RA of node: 334.9249 deg Eccentricity: 0.0354749 Arg of perigee: 294.9577 deg Mean anomaly: 061.4581 deg Mean motion: 14.28263277 rev/day Decay rate: 1.08e-06 rev/day^2 Epoch rev: 56690 Checksum: 333
Satellite: RS-22 Catalog number: 27939 Epoch time: 09245.67104587 Element set: 880 Inclination: 097.9321 deg RA of node: 117.6731 deg Eccentricity: 0.0012505 Arg of perigee: 247.1676 deg Mean anomaly: 112.8199 deg Mean motion: 14.63337937 rev/day Decay rate: 7.7e-07 rev/day^2 Epoch rev: 31690 Checksum: 332
Satellite: VO-52 Catalog number: 28650 Epoch time: 09244.36486526 Element set: 0312 Inclination: 097.7357 deg RA of node: 303.4013 deg Eccentricity: 0.0028004 Arg of perigee: 138.8685 deg Mean anomaly: 221.4599 deg Mean motion: 14.81614363 rev/day Decay rate: -5.2e-07 rev/day^2 Epoch rev: 23392 Checksum: 305
/EX SB KEPS @ AMSAT $ORB09246.D Orbital Elements 09246.MICROS
HR AMSAT ORBITAL ELEMENTS FOR THE MICROSATS FROM WA5QGD FORT WORTH,TX September 3, 2009 Send Subscribe/unsubscribe to KEPS at http://www.amsat.org/mailman/listinfo/keps BID: ORB09246.D TO ALL RADIO AMATEURS BT
Satellite: AO-16 Catalog number: 20439 Epoch time: 09245.63219568 Element set: 0694 Inclination: 098.2878 deg RA of node: 210.5434 deg Eccentricity: 0.0010214 Arg of perigee: 304.5179 deg Mean anomaly: 055.5041 deg Mean motion: 14.31832141 rev/day Decay rate: 1.6e-07 rev/day^2 Epoch rev: 02423 Checksum: 279
Satellite: LO-19 Catalog number: 20442 Epoch time: 09245.46689780 Element set: 0608 Inclination: 098.2508 deg RA of node: 217.3482 deg Eccentricity: 0.0011030 Arg of perigee: 299.8632 deg Mean anomaly: 060.1454 deg Mean motion: 14.32066348 rev/day Decay rate: -7.8e-07 rev/day^2 Epoch rev: 02437 Checksum: 307
Satellite: AO-27 Catalog number: 22825 Epoch time: 09245.78217995 Element set: 0331 Inclination: 098.4440 deg RA of node: 196.7878 deg Eccentricity: 0.0008955 Arg of perigee: 041.2239 deg Mean anomaly: 318.9593 deg Mean motion: 14.29271731 rev/day Decay rate: -7.3e-07 rev/day^2 Epoch rev: 83099 Checksum: 352
Satellite: IO-26 Catalog number: 22826 Epoch time: 09245.61872011 Element set: 59 Inclination: 098.4361 deg RA of node: 197.3443 deg Eccentricity: 0.0009587 Arg of perigee: 036.4769 deg Mean anomaly: 323.7060 deg Mean motion: 14.29524862 rev/day Decay rate: 4.0e-08 rev/day^2 Epoch rev: 83107 Checksum: 313
Satellite: GO-32 Catalog number: 25397 Epoch time: 09245.62042332 Element set: 0982 Inclination: 098.3251 deg RA of node: 263.8084 deg Eccentricity: 0.0001930 Arg of perigee: 051.9277 deg Mean anomaly: 308.2078 deg Mean motion: 14.23162114 rev/day Decay rate: -1.65e-06 rev/day^2 Epoch rev: 57914 Checksum: 297
Satellite: NO-44 Catalog number: 26931 Epoch time: 09245.52282623 Element set: 0257 Inclination: 067.0507 deg RA of node: 225.1029 deg Eccentricity: 0.0006630 Arg of perigee: 275.6068 deg Mean anomaly: 084.4279 deg Mean motion: 14.29566360 rev/day Decay rate: 2.17e-06 rev/day^2 Epoch rev: 41363 Checksum: 301
Satellite: SO-50 Catalog number: 27607 Epoch time: 09245.93862172 Element set: 0975 Inclination: 064.5585 deg RA of node: 148.9485 deg Eccentricity: 0.0058435 Arg of perigee: 186.5744 deg Mean anomaly: 173.4612 deg Mean motion: 14.71455661 rev/day Decay rate: -2.0e-07 rev/day^2 Epoch rev: 36011 Checksum: 327
Satellite: CO-55 Catalog number: 27844 Epoch time: 09245.67655852 Element set: 658 Inclination: 098.7143 deg RA of node: 253.7533 deg Eccentricity: 0.0009125 Arg of perigee: 284.1497 deg Mean anomaly: 075.8659 deg Mean motion: 14.20653558 rev/day Decay rate: 3.0e-07 rev/day^2 Epoch rev: 32026 Checksum: 336
Satellite: CO-57 Catalog number: 27848 Epoch time: 09245.52406231 Element set: 0607 Inclination: 098.7178 deg RA of node: 252.6656 deg Eccentricity: 0.0009103 Arg of perigee: 288.0514 deg Mean anomaly: 071.9669 deg Mean motion: 14.20453447 rev/day Decay rate: -4.0e-08 rev/day^2 Epoch rev: 32020 Checksum: 306
Satellite: AO-51 Catalog number: 28375 Epoch time: 09245.68312070 Element set: 0477 Inclination: 098.0538 deg RA of node: 250.7758 deg Eccentricity: 0.0082995 Arg of perigee: 250.3490 deg Mean anomaly: 108.8726 deg Mean motion: 14.40650788 rev/day Decay rate: -2.0e-08 rev/day^2 Epoch rev: 27211 Checksum: 322
Satellite: CO-56 Catalog number: 28941 Epoch time: 09246.78080689 Element set: 407 Inclination: 098.1380 deg RA of node: 076.6668 deg Eccentricity: 0.0060578 Arg of perigee: 193.3352 deg Mean anomaly: 166.6333 deg Mean motion: 15.95295267 rev/day Decay rate: 1.04723e-03 rev/day^2 Epoch rev: 19973 Checksum: 365
Satellite: GENESAT1 Catalog number: 29655 Epoch time: 09246.85444574 Element set: 798 Inclination: 040.0228 deg RA of node: 049.8373 deg Eccentricity: 0.0003958 Arg of perigee: 350.4811 deg Mean anomaly: 009.5930 deg Mean motion: 15.67139122 rev/day Decay rate: 1.2118e-04 rev/day^2 Epoch rev: 15481 Checksum: 313
Satellite: CP3 Catalog number: 31129 Epoch time: 09246.10313324 Element set: 170 Inclination: 097.9816 deg RA of node: 295.4230 deg Eccentricity: 0.0103391 Arg of perigee: 044.3389 deg Mean anomaly: 316.6027 deg Mean motion: 14.52158779 rev/day Decay rate: 7.0e-07 rev/day^2 Epoch rev: 12619 Checksum: 288
Satellite: CO-65 Catalog number: 32785 Epoch time: 09245.25594560 Element set: 0467 Inclination: 097.9390 deg RA of node: 308.5601 deg Eccentricity: 0.0015795 Arg of perigee: 137.9245 deg Mean anomaly: 222.3182 deg Mean motion: 14.81511859 rev/day Decay rate: -9.9e-07 rev/day^2 Epoch rev: 07285 Checksum: 342
Satellite: KKS-1 Catalog number: 33493 Epoch time: 09246.28513902 Element set: 718 Inclination: 098.0619 deg RA of node: 358.8601 deg Eccentricity: 0.0019899 Arg of perigee: 353.1234 deg Mean anomaly: 006.9730 deg Mean motion: 14.80721441 rev/day Decay rate: 1.93e-06 rev/day^2 Epoch rev: 3302 Checksum: 299
Satellite: SOHLA-1 Catalog number: 33496 Epoch time: 09246.76289331 Element set: 684 Inclination: 098.0421 deg RA of node: 354.8657 deg Eccentricity: 0.0007584 Arg of perigee: 040.7368 deg Mean anomaly: 319.4405 deg Mean motion: 14.69445158 rev/day Decay rate: 2.9e-07 rev/day^2 Epoch rev: 3281 Checksum: 327
/EX SB KEPS @ AMSAT $ORB09246.W Orbital Elements 09246.WEATHER
HR AMSAT ORBITAL ELEMENTS FOR WEATHER SATELLITES FROM WA5QGD FORT WORTH,TX September 3, 2009 Send Subscribe/unsubscribe to KEPS at http://www.amsat.org/mailman/listinfo/keps BID: ORB09246.W TO ALL RADIO AMATEURS BT
Satellite: NOAA-10 Catalog number: 16969 Epoch time: 09245.61508906 Element set: 0747 Inclination: 098.6889 deg RA of node: 271.8298 deg Eccentricity: 0.0012124 Arg of perigee: 335.5245 deg Mean anomaly: 024.5367 deg Mean motion: 14.27393179 rev/day Decay rate: -9.0e-08 rev/day^2 Epoch rev: 19455 Checksum: 346
Satellite: NOAA-11 Catalog number: 19531 Epoch time: 09245.78274893 Element set: 0766 Inclination: 098.7824 deg RA of node: 334.5331 deg Eccentricity: 0.0010806 Arg of perigee: 246.9032 deg Mean anomaly: 113.0992 deg Mean motion: 14.14902826 rev/day Decay rate: 8.4e-07 rev/day^2 Epoch rev: 08049 Checksum: 315
Satellite: NOAA-12 Catalog number: 21263 Epoch time: 09245.94384730 Element set: 0266 Inclination: 098.7744 deg RA of node: 254.0469 deg Eccentricity: 0.0011413 Arg of perigee: 283.1098 deg Mean anomaly: 076.8807 deg Mean motion: 14.25591224 rev/day Decay rate: 1.6e-07 rev/day^2 Epoch rev: 95147 Checksum: 314
Satellite: MET-3/5 Catalog number: 21655 Epoch time: 09245.94157772 Element set: 0668 Inclination: 082.5559 deg RA of node: 151.5815 deg Eccentricity: 0.0014076 Arg of perigee: 352.6035 deg Mean anomaly: 007.4877 deg Mean motion: 13.17020239 rev/day Decay rate: 5.1e-07 rev/day^2 Epoch rev: 86786 Checksum: 324
Satellite: MET-2/21 Catalog number: 22782 Epoch time: 09246.78451631 Element set: 555 Inclination: 082.5477 deg RA of node: 119.6761 deg Eccentricity: 0.0023479 Arg of perigee: 123.7812 deg Mean anomaly: 236.5589 deg Mean motion: 13.83638308 rev/day Decay rate: -8.0e-08 rev/day^2 Epoch rev: 80847 Checksum: 339
Satellite: OKEAN-4 Catalog number: 23317 Epoch time: 09245.91073957 Element set: 0007 Inclination: 082.5375 deg RA of node: 261.9538 deg Eccentricity: 0.0023927 Arg of perigee: 106.9448 deg Mean anomaly: 253.4385 deg Mean motion: 14.82717983 rev/day Decay rate: 2.76e-06 rev/day^2 Epoch rev: 80388 Checksum: 339
Satellite: NOAA-14 Catalog number: 23455 Epoch time: 09246.30346552 Element set: 744 Inclination: 098.9045 deg RA of node: 323.6919 deg Eccentricity: 0.0008849 Arg of perigee: 334.8187 deg Mean anomaly: 025.2562 deg Mean motion: 14.13767537 rev/day Decay rate: -2.83e-06 rev/day^2 Epoch rev: 75696 Checksum: 342
Satellite: NOAA-15 Catalog number: 25338 Epoch time: 09245.30199821 Element set: 67 Inclination: 098.5908 deg RA of node: 232.8434 deg Eccentricity: 0.0010401 Arg of perigee: 187.7285 deg Mean anomaly: 172.3770 deg Mean motion: 14.24781816 rev/day Decay rate: -4.8e-07 rev/day^2 Epoch rev: 58775 Checksum: 327
